CUBESAT XI-V (28895 NORAD) Tracking and Keplerian Element Data

This shows tracking and keplerian element data for the satellite.

Feedback or suggestion? Click here.




ElementValue
Catalog28895
NameCUBESAT XI-V
Epoch Orbit1171
Epoch Day286.80079105
Epoch Year2024
RAAN62.9901
Inclination98.2175
Eccentricity0.0014904
Argument of Perigee349.4071
Mean Anonmoly10.6818
Mean Motion14.68909017
Decay Rate6.578E-05
L11 28895U 05043F 24286.80079105 .00006578 00000+0 11304-2 0 9992
L22 28895 98.2175 62.9901 0014904 349.4071 10.6818 14.68909017 11718



Live tracking and technical data element details for CUBESAT XI-V (NORAD 28895). CUBESAT XI-V can be tracked NOW for your location showing map with azimuth and elevation plus other details from your city location.







IsCatalogInMostPopularTable: catalog: 28895, numindb: 497
Update: records affected: 1



GetName: 28895 CUBESAT XI-V

Hit Count: updated at: Fri, 24 Jan 2025 22:15:54 GMT